| time (UTC) | temp F | wind direction | speed MPH | gust MPH | rain 1hr in | rain 24hr in | rain mn in | humidity % | barometer mb |
| 20260906083059 | 74 | 146 | 0.0 | 3.0 | 0.00 | 0.00 | 0.00 | 60 | 1024.7 |
| 20260906081545 | 73 | 131 | 1.0 | 4.0 | 0.00 | 0.00 | 0.00 | 63 | 1024.6 |
| 20260906074531 | 72 | 78 | 1.0 | 4.0 | 0.00 | 0.00 | 0.00 | 65 | 1024.8 |
| 20260906073058 | 71 | 44 | 0.0 | 2.0 | 0.00 | 0.00 | 0.00 | 67 | 1024.9 |
| 20260906071524 | 70 | 100 | 0.0 | 3.0 | 0.00 | 0.00 | 0.00 | 71 | 1024.8 |
| 20260906070003 | 69 | 105 | 0.0 | 3.0 | 0.00 | 0.00 | 0.00 | 71 | 1024.6 |
| 20260906064536 | 69 | 132 | 0.0 | 2.0 | 0.00 | 0.00 | 0.00 | 72 | 1024.5 |
| 20260906063009 | 68 | 122 | 0.0 | 0.0 | 0.00 | 0.00 | 0.00 | 70 | 1024.5 |
| 20260906061529 | 68 | 133 | 0.0 | 0.0 | 0.00 | 0.00 | 0.00 | 70 | 1024.4 |
| 20260906054531 | 65 | 228 | 0.0 | 1.0 | 0.00 | 0.00 | 0.00 | 77 | 1024.1 |
| 20260906053057 | 64 | 316 | 0.0 | 1.0 | 0.00 | 0.00 | 0.00 | 79 | 1023.8 |
| 20260906051525 | 63 | 316 | 0.0 | 0.0 | 0.00 | 0.00 | 0.00 | 83 | 1023.6 |
| 20260906050111 | 63 | 316 | 0.0 | 1.0 | 0.00 | 0.00 | 0.00 | 84 | 1023.5 |
| 20260906044527 | 63 | 321 | 0.0 | 0.0 | 0.00 | 0.00 | 0.00 | 84 | 1023.4 |
| 20260906043001 | 63 | 321 | 0.0 | 1.0 | 0.00 | 0.00 | 0.00 | 83 | 1023.4 |
| 20260906041534 | 63 | 10 | 0.0 | 1.0 | 0.00 | 0.00 | 0.00 | 82 | 1023.2 |
| 20260906040013 | 64 | 49 | 0.0 | 2.0 | 0.00 | 0.00 | 0.00 | 82 | 1023.2 |
| 20260906034654 | 64 | 325 | 0.0 | 1.0 | 0.00 | 0.00 | 0.00 | 78 | 1023.0 |
| 20260906033029 | 64 | 311 | 0.0 | 1.0 | 0.00 | 0.00 | 0.00 | 78 | 1022.9 |
| 20260906031502 | 64 | 311 | 0.0 | 2.0 | 0.00 | 0.00 | 0.00 | 79 | 1022.8 |
| 20260906030041 | 65 | 295 | 0.0 | 3.0 | 0.00 | 0.00 | 0.00 | 79 | 1022.8 |
| 20260906024522 | 65 | 281 | 0.0 | 1.0 | 0.00 | 0.00 | 0.00 | 78 | 1022.7 |
| 20260906023012 | 66 | 281 | 0.0 | 1.0 | 0.00 | 0.00 | 0.00 | 77 | 1022.6 |
| 20260906021535 | 66 | 271 | 0.0 | 1.0 | 0.00 | 0.00 | 0.00 | 78 | 1022.4 |
| 20260906020014 | 67 | 329 | 1.0 | 3.0 | 0.00 | 0.00 | 0.00 | 78 | 1022.4 |
| 20260906014621 | 66 | 198 | 0.0 | 0.0 | 0.00 | 0.00 | 0.00 | 80 | 1022.3 |
| 20260906013032 | 66 | 139 | 0.0 | 2.0 | 0.00 | 0.00 | 0.00 | 81 | 1022.3 |
| 20260906011506 | 66 | 254 | 0.0 | 3.0 | 0.00 | 0.00 | 0.00 | 81 | 1022.2 |
| 20260906010048 | 67 | 103 | 0.0 | 1.0 | 0.00 | 0.00 | 0.00 | 81 | 1022.0 |
| 20260906004530 | 67 | 103 | 0.0 | 0.0 | 0.00 | 0.00 | 0.00 | 81 | 1022.0 |
| 20260906001503 | 67 | 289 | 0.0 | 1.0 | 0.00 | 0.00 | 0.00 | 81 | 1022.0 |
| 20260906000104 | 68 | 289 | 0.0 | 1.0 | 0.00 | 0.00 | 0.00 | 80 | 1022.1 |
| 20260905234541 | 68 | 316 | 0.0 | 1.0 | 0.00 | 0.00 | 0.00 | 80 | 1022.0 |
| 20260905233019 | 69 | 9 | 0.0 | 1.0 | 0.00 | 0.00 | 0.00 | 79 | 1021.7 |
| 20260905231554 | 70 | 61 | 1.0 | 2.0 | 0.00 | 0.00 | 0.00 | 78 | 1021.7 |
| 20260905230041 | 70 | 75 | 0.0 | 3.0 | 0.00 | 0.00 | 0.00 | 77 | 1021.7 |
| 20260905224507 | 70 | 66 | 0.0 | 1.0 | 0.00 | 0.00 | 0.00 | 80 | 1021.6 |
| 20260905223052 | 70 | 258 | 0.0 | 2.0 | 0.00 | 0.00 | 0.00 | 80 | 1021.6 |
| 20260905221535 | 71 | 82 | 0.0 | 1.0 | 0.00 | 0.00 | 0.00 | 79 | 1021.3 |
| 20260905220022 | 71 | 82 | 0.0 | 0.0 | 0.00 | 0.00 | 0.00 | 79 | 1021.2 |
| 20260905214510 | 72 | 82 | 0.0 | 1.0 | 0.00 | 0.00 | 0.00 | 77 | 1021.1 |
| 20260905213056 | 73 | 76 | 0.0 | 2.0 | 0.00 | 0.00 | 0.00 | 74 | 1020.8 |
| 20260905211542 | 73 | 6 | 1.0 | 7.0 | 0.00 | 0.00 | 0.00 | 74 | 1020.8 |
| 20260905210026 | 73 | 2 | 2.0 | 5.0 | 0.00 | 0.00 | 0.00 | 74 | 1020.8 |
| 20260905204508 | 73 | 7 | 1.0 | 3.0 | 0.00 | 0.00 | 0.00 | 73 | 1020.8 |
| 20260905203100 | 73 | 357 | 1.0 | 3.0 | 0.00 | 0.00 | 0.00 | 74 | 1020.8 |
| 20260905201538 | 72 | 354 | 0.0 | 1.0 | 0.00 | 0.00 | 0.00 | 74 | 1020.6 |
| 20260905200009 | 74 | 306 | 0.0 | 2.0 | 0.00 | 0.00 | 0.00 | 73 | 1020.3 |
| 20260905194546 | 73 | 235 | 0.0 | 1.0 | 0.00 | 0.00 | 0.00 | 74 | 1020.0 |
| 20260905193028 | 74 | 1 | 0.0 | 2.0 | 0.00 | 0.00 | 0.00 | 71 | 1019.8 |
| 20260905191501 | 75 | 11 | 0.0 | 1.0 | 0.00 | 0.00 | 0.00 | 72 | 1019.8 |
| 20260905190047 | 75 | 350 | 1.0 | 1.0 | 0.00 | 0.00 | 0.00 | 70 | 1019.5 |
| 20260905184518 | 75 | 328 | 0.0 | 1.0 | 0.00 | 0.00 | 0.00 | 70 | 1019.4 |
| 20260905183050 | 76 | 288 | 0.0 | 1.0 | 0.00 | 0.00 | 0.00 | 68 | 1019.2 |
| 20260905181524 | 77 | 288 | 1.0 | 1.0 | 0.00 | 0.00 | 0.00 | 65 | 1019.0 |
| 20260905180056 | 78 | 286 | 1.0 | 3.0 | 0.00 | 0.00 | 0.00 | 63 | 1018.7 |
| 20260905174530 | 78 | 295 | 1.0 | 3.0 | 0.00 | 0.00 | 0.00 | 63 | 1018.5 |
| 20260905173005 | 79 | 309 | 1.0 | 2.0 | 0.00 | 0.00 | 0.00 | 61 | 1018.2 |
| 20260905171544 | 81 | 275 | 0.0 | 3.0 | 0.00 | 0.00 | 0.00 | 57 | 1017.9 |
| 20260905170011 | 83 | 252 | 4.0 | 9.0 | 0.00 | 0.00 | 0.00 | 54 | 1017.7 |
| 20260905164557 | 84 | 264 | 3.0 | 7.0 | 0.00 | 0.00 | 0.00 | 53 | 1017.7 |
| 20260905163026 | 84 | 274 | 3.0 | 10.0 | 0.00 | 0.00 | 0.00 | 52 | 1017.5 |
| 20260905161600 | 85 | 238 | 3.0 | 8.0 | 0.00 | 0.00 | 0.00 | 51 | 1017.4 |
| 20260905160032 | 86 | 175 | 2.0 | 7.0 | 0.00 | 0.00 | 0.00 | 50 | 1017.3 |
| 20260905154508 | 86 | 208 | 3.0 | 11.0 | 0.00 | 0.00 | 0.00 | 50 | 1017.2 |
| 20260905153053 | 87 | 222 | 2.0 | 8.0 | 0.00 | 0.00 | 0.00 | 50 | 1017.2 |
| 20260905151513 | 88 | 248 | 1.0 | 3.0 | 0.00 | 0.00 | 0.00 | 49 | 1017.1 |
| 20260905150045 | 88 | 171 | 1.0 | 5.0 | 0.00 | 0.00 | 0.00 | 50 | 1016.9 |
| 20260905144513 | 88 | 254 | 0.0 | 3.0 | 0.00 | 0.00 | 0.00 | 49 | 1017.0 |
| 20260905143044 | 87 | 234 | 0.0 | 4.0 | 0.00 | 0.00 | 0.00 | 51 | 1017.2 |
| 20260905141520 | 86 | 233 | 1.0 | 4.0 | 0.00 | 0.00 | 0.00 | 55 | 1017.2 |
| 20260905140046 | 87 | 333 | 1.0 | 2.0 | 0.00 | 0.00 | 0.00 | 52 | 1017.2 |
| 20260905134517 | 85 | 301 | 0.0 | 3.0 | 0.00 | 0.00 | 0.00 | 54 | 1017.3 |
| 20260905133046 | 86 | 241 | 3.0 | 5.0 | 0.00 | 0.00 | 0.00 | 53 | 1017.3 |
| 20260905131528 | 85 | 312 | 2.0 | 4.0 | 0.00 | 0.00 | 0.00 | 58 | 1017.4 |
| 20260905130051 | 84 | 13 | 1.0 | 4.0 | 0.00 | 0.00 | 0.00 | 55 | 1017.5 |
| 20260905124618 | 85 | 329 | 0.0 | 3.0 | 0.00 | 0.00 | 0.00 | 57 | 1017.6 |
| 20260905123048 | 83 | 269 | 1.0 | 4.0 | 0.00 | 0.00 | 0.00 | 59 | 1017.8 |
| 20260905121518 | 83 | 321 | 0.0 | 3.0 | 0.00 | 0.00 | 0.00 | 59 | 1017.9 |
| 20260905120049 | 85 | 278 | 0.0 | 3.0 | 0.00 | 0.00 | 0.00 | 57 | 1018.0 |
| 20260905114519 | 83 | 238 | 1.0 | 5.0 | 0.00 | 0.00 | 0.00 | 60 | 1018.2 |
| 20260905113050 | 83 | 152 | 1.0 | 3.0 | 0.00 | 0.00 | 0.00 | 59 | 1018.2 |
| 20260905111512 | 82 | 96 | 1.0 | 4.0 | 0.00 | 0.00 | 0.00 | 61 | 1018.3 |
| 20260905110046 | 81 | 219 | 0.0 | 3.0 | 0.00 | 0.00 | 0.00 | 62 | 1018.4 |
| 20260905104515 | 80 | 209 | 0.0 | 3.0 | 0.00 | 0.00 | 0.00 | 63 | 1018.5 |
| 20260905103048 | 80 | 220 | 0.0 | 2.0 | 0.00 | 0.00 | 0.00 | 63 | 1018.5 |
| 20260905101510 | 80 | 46 | 1.0 | 4.0 | 0.00 | 0.00 | 0.00 | 66 | 1018.6 |
| 20260905100042 | 78 | 233 | 2.0 | 4.0 | 0.00 | 0.00 | 0.00 | 65 | 1018.6 |
| 20260905094513 | 77 | 121 | 1.0 | 3.0 | 0.00 | 0.00 | 0.00 | 69 | 1018.9 |
| 20260905093042 | 76 | 184 | 0.0 | 2.0 | 0.00 | 0.00 | 0.00 | 71 | 1018.9 |
| 20260905091504 | 75 | 53 | 1.0 | 4.0 | 0.00 | 0.00 | 0.00 | 74 | 1019.0 |
| 20260905090028 | 74 | 69 | 0.0 | 3.0 | 0.00 | 0.00 | 0.00 | 74 | 1019.0 |
| 20260905084616 | 74 | 64 | 2.0 | 4.0 | 0.00 | 0.00 | 0.00 | 74 | 1018.8 |